KI2K Weather Reports


time (UTC)temp
F
wind
direction
speed
knots
gust
knots
rain 1hr
in
rain 24hr
in
rain mn
in
humidity
%
barometer
mb
20260905191123 93 284 1.7 2.6 0.00 0.00 0.00 64 1011.4
20260905190621 94 265 0.0 0.9 0.00 0.00 0.00 64 1011.4
20260905190121 93 271 0.9 0.9 0.00 0.00 0.00 62 1011.7
20260905185620 93 264 2.6 2.6 0.00 0.00 0.00 63 1011.6
20260905185114 93 272 1.7 2.6 0.00 0.00 0.00 62 1011.5
20260905184609 93 211 0.9 1.7 0.00 0.00 0.00 61 1011.8
20260905184108 93 280 0.0 0.9 0.00 0.00 0.00 61 1011.9
20260905183607 93 203 1.7 1.7 0.00 0.00 0.00 63 1012.1
20260905183103 94 256 0.9 1.7 0.00 0.00 0.00 61 1012.2
20260905182602 93 231 0.9 1.7 0.00 0.00 0.00 62 1012.0
20260905182056 93 307 1.7 2.6 0.00 0.00 0.00 64 1012.2
20260905181551 93 251 0.0 0.9 0.00 0.00 0.00 62 1012.1
20260905181050 91 298 0.9 0.9 0.00 0.00 0.00 64 1012.2
20260905180545 91 304 1.7 2.6 0.00 0.00 0.00 65 1012.2
20260905180041 91 254 0.9 0.9 0.00 0.00 0.00 65 1012.5
20260905175539 90 288 1.7 2.6 0.00 0.00 0.00 64 1012.4
20260905175035 89 274 0.9 1.7 0.00 0.00 0.00 64 1012.4
20260905174531 91 274 0.9 0.9 0.00 0.00 0.00 64 1012.5
20260905174026 90 263 0.9 1.7 0.00 0.00 0.00 65 1012.5
20260905173523 89 261 0.9 1.7 0.00 0.00 0.00 63 1012.5
20260905173018 90 306 2.6 2.6 0.00 0.00 0.00 64 1012.4
20260905172516 89 262 1.7 1.7 0.00 0.00 0.00 63 1012.5
20260905172012 90 271 0.9 0.9 0.00 0.00 0.00 63 1012.6
20260905171508 90 275 0.0 0.9 0.00 0.00 0.00 62 1012.7
20260905171003 90 266 0.0 0.9 0.00 0.00 0.00 64 1012.7
20260905170500 89 75 0.9 0.9 0.00 0.00 0.00 64 1012.8
20260905165954 89 217 0.9 1.7 0.00 0.00 0.00 63 1012.9
20260905165449 89 263 0.9 1.7 0.00 0.00 0.00 66 1013.1
20260905164944 88 295 0.9 0.9 0.00 0.00 0.00 65 1013.1
20260905164444 87 256 1.7 1.7 0.00 0.00 0.00 66 1013.1
20260905163939 88 281 1.7 1.7 0.00 0.00 0.00 63 1013.2
20260905163436 88 141 1.7 1.7 0.00 0.00 0.00 64 1013.1
20260905162931 87 265 0.9 0.9 0.00 0.00 0.00 65 1013.2
20260905162426 87 283 2.6 4.3 0.00 0.00 0.00 63 1013.4
20260905161921 88 278 2.6 2.6 0.00 0.00 0.00 63 1013.3
20260905161420 86 255 0.0 0.0 0.00 0.00 0.00 65 1013.0
20260905160918 87 265 2.6 2.6 0.00 0.00 0.00 65 1013.0
20260905160412 86 267 0.9 0.9 0.00 0.00 0.00 65 1013.1
20260905155906 87 286 1.7 1.7 0.00 0.00 0.00 66 1013.1
20260905155401 86 338 0.9 1.7 0.00 0.00 0.00 66 1013.0
20260905154900 86 352 0.9 1.7 0.00 0.00 0.00 66 1013.2
20260905154356 86 182 0.9 2.6 0.00 0.00 0.00 67 1013.3
20260905153851 85 261 0.0 0.9 0.00 0.00 0.00 66 1012.9
20260905153347 86 116 2.6 4.3 0.00 0.00 0.00 68 1013.2
20260905152847 85 283 0.9 1.7 0.00 0.00 0.00 67 1013.3
20260905152346 85 268 0.9 0.9 0.00 0.00 0.00 69 1013.2
20260905151841 85 264 0.9 1.7 0.00 0.00 0.00 68 1013.5
20260905151337 84 210 0.0 0.9 0.00 0.00 0.00 69 1013.4
20260905150837 84 248 0.9 1.7 0.00 0.00 0.00 70 1013.5
20260905150331 83 17 0.0 0.9 0.00 0.00 0.00 71 1013.4
20260905145828 82 164 0.9 1.7 0.00 0.00 0.00 71 1013.4
20260905145323 82 315 1.7 2.6 0.00 0.00 0.00 71 1013.4
20260905144822 82 220 2.6 2.6 0.00 0.00 0.00 72 1013.5
20260905144318 82 271 0.9 0.9 0.00 0.00 0.00 73 1013.7
20260905143816 81 86 4.3 5.2 0.00 0.00 0.00 72 1013.4
20260905143311 81 53 2.6 2.6 0.00 0.00 0.00 72 1013.5
20260905142810 80 253 0.9 0.9 0.00 0.00 0.00 74 1013.8
20260905142306 80 143 1.7 1.7 0.00 0.00 0.00 75 1013.6
20260905141800 81 74 1.7 2.6 0.00 0.00 0.00 73 1013.8
20260905141255 79 266 0.9 0.9 0.00 0.00 0.00 75 1013.6
20260905140751 79 82 3.5 5.2 0.00 0.00 0.00 76 1013.7
20260905140251 80 208 1.7 2.6 0.00 0.00 0.00 73 1013.8
20260905135749 79 333 0.9 1.7 0.00 0.00 0.00 76 1013.8
20260905135245 78 83 2.6 4.3 0.00 0.00 0.00 76 1013.6
20260905134744 78 321 1.7 1.7 0.00 0.00 0.00 76 1013.7
20260905134239 77 150 2.6 2.6 0.00 0.00 0.00 77 1013.6
20260905133734 78 171 4.3 6.1 0.00 0.00 0.00 77 1013.6
20260905133229 77 37 4.3 6.1 0.00 0.00 0.00 77 1013.9
20260905132728 77 301 2.6 5.2 0.00 0.00 0.00 78 1013.4
20260905132224 77 92 2.6 4.3 0.00 0.00 0.00 78 1013.7
20260905131718 77 255 1.7 1.7 0.00 0.00 0.00 79 1013.8
20260905131214 76 206 2.6 2.6 0.00 0.00 0.00 79 1013.6
20260905130708 76 269 4.3 6.1 0.00 0.00 0.00 81 1013.9
20260905130208 77 146 3.5 5.2 0.00 0.00 0.00 80 1013.8
20260905125703 76 215 0.9 0.9 0.00 0.00 0.00 81 1013.9
20260905125158 76 189 0.0 0.9 0.00 0.00 0.00 81 1013.9
20260905124654 76 123 1.7 1.7 0.00 0.00 0.00 82 1013.8
20260905124150 76 154 4.3 7.0 0.00 0.00 0.00 81 1014.0
20260905123645 75 38 2.6 2.6 0.00 0.00 0.00 83 1013.9
20260905123142 75 32 2.6 2.6 0.00 0.00 0.00 83 1014.0
20260905122641 75 58 3.5 5.2 0.00 0.00 0.00 83 1013.7
20260905122136 75 75 2.6 4.3 0.00 0.00 0.00 83 1013.6
20260905121631 75 78 3.5 4.3 0.00 0.00 0.00 84 1013.9
20260905121126 76 153 2.6 4.3 0.00 0.00 0.00 83 1013.7
20260905120625 76 136 1.7 2.6 0.00 0.00 0.00 84 1013.4
20260905120121 76 273 0.9 2.6 0.00 0.00 0.00 85 1013.6
20260905115620 76 84 3.5 4.3 0.00 0.00 0.00 86 1013.6
20260905115115 76 104 2.6 2.6 0.00 0.00 0.00 89 1013.5
20260905114614 76 159 1.7 1.7 0.00 0.00 0.00 89 1013.4
20260905114113 77 94 2.6 5.2 0.00 0.00 0.00 89 1013.2
20260905113608 77 63 4.3 6.1 0.00 0.00 0.00 88 1013.2
20260905113104 77 238 2.6 4.3 0.00 0.00 0.00 93 1013.0
20260905112558 76 59 2.6 2.6 0.00 0.00 0.00 96 1012.7
20260905112054 75 87 1.7 2.6 0.00 0.00 0.00 98 1012.8
20260905111549 75 307 0.0 0.0 0.00 0.00 0.00 98 1012.3
20260905111048 75 278 0.0 0.0 0.00 0.00 0.00 97 1012.1
20260905110547 75 282 0.0 0.0 0.00 0.00 0.00 97 1012.1
20260905110043 75 282 0.0 0.0 0.00 0.00 0.00 97 1011.9
20260905105542 75 281 0.0 0.0 0.00 0.00 0.00 97 1012.0
20260905105042 75 275 0.0 0.0 0.00 0.00 0.00 97 1012.0
20260905104538 75 270 0.0 0.0 0.00 0.00 0.00 97 1012.3
20260905104037 75 272 0.0 0.0 0.00 0.00 0.00 97 1012.0
20260905103533 75 277 0.0 0.0 0.00 0.00 0.00 97 1012.3
20260905103029 75 279 0.0 0.0 0.00 0.00 0.00 97 1012.1
20260905102524 75 279 0.0 0.0 0.00 0.00 0.00 97 1011.8
20260905102021 75 279 0.0 0.0 0.00 0.00 0.00 97 1011.9
20260905101519 75 277 0.0 0.0 0.00 0.00 0.00 97 1011.8
20260905101017 75 276 0.0 0.0 0.00 0.00 0.00 97 1011.9
20260905100514 75 277 0.0 0.0 0.00 0.00 0.00 98 1011.7
20260905100008 75 276 0.0 0.0 0.00 0.00 0.00 98 1011.9
20260905095503 75 275 0.0 0.0 0.00 0.00 0.00 98 1011.7
20260905094957 75 278 0.0 0.0 0.00 0.00 0.00 98 1011.9
20260905094453 75 280 0.0 0.0 0.00 0.00 0.00 98 1011.9
20260905093951 75 277 0.0 0.0 0.00 0.00 0.00 98 1012.0
20260905093447 75 278 0.0 0.0 0.00 0.00 0.00 97 1011.8
20260905092943 76 278 0.0 0.0 0.00 0.00 0.00 97 1011.8
20260905092438 76 278 0.0 0.0 0.00 0.00 0.00 97 1011.9
20260905091932 76 278 0.0 0.0 0.00 0.00 0.00 97 1012.0
20260905091427 75 274 0.0 0.0 0.00 0.00 0.00 97 1012.0
20260905090926 75 274 0.0 0.0 0.00 0.00 0.00 97 1012.1
20260905090422 75 274 0.0 0.0 0.00 0.00 0.00 97 1011.9
20260905085920 76 274 0.0 0.0 0.00 0.00 0.00 97 1012.0
20260905085415 76 274 0.0 0.0 0.00 0.00 0.00 97 1011.9
20260905084911 75 274 0.0 0.0 0.00 0.00 0.00 97 1011.7
20260905084410 76 274 0.0 0.0 0.00 0.00 0.00 97 1011.8
20260905083905 76 276 0.0 0.0 0.00 0.00 0.00 97 1011.7
20260905083401 76 276 0.0 0.0 0.00 0.00 0.00 97 1011.9
20260905082856 76 279 0.0 0.0 0.00 0.00 0.00 97 1011.8
20260905082352 76 278 0.0 0.0 0.00 0.00 0.00 97 1011.8
20260905081847 76 282 0.0 0.0 0.00 0.00 0.00 97 1011.5
20260905081342 76 280 0.0 0.0 0.00 0.00 0.00 97 1011.6
20260905080840 76 277 0.0 0.0 0.00 0.00 0.00 97 1011.2
20260905080335 76 279 0.0 0.0 0.00 0.00 0.00 97 1011.5
20260905075833 76 278 0.0 0.0 0.00 0.00 0.00 98 1011.3
20260905075328 76 278 0.0 0.0 0.00 0.00 0.00 98 1011.2
20260905074827 76 273 0.0 0.0 0.00 0.00 0.00 97 1011.2
20260905074323 76 273 0.0 0.0 0.00 0.00 0.00 97 1011.3
20260905073819 77 275 0.0 0.0 0.00 0.00 0.00 97 1011.2
20260905073313 77 281 0.0 0.0 0.00 0.00 0.00 97 1011.1
20260905072808 76 276 0.0 0.0 0.00 0.00 0.00 97 1011.0
20260905072306 77 276 0.0 0.0 0.00 0.00 0.00 97 1011.2
20260905071800 77 275 0.0 0.0 0.00 0.00 0.00 98 1011.1
20260905071256 77 277 0.0 0.0 0.00 0.00 0.00 98 1011.2
20260905070750 77 278 0.0 0.0 0.00 0.00 0.00 98 1011.2
20260905070246 77 277 0.0 0.0 0.00 0.00 0.00 98 1011.3
20260905065745 77 276 0.0 0.0 0.00 0.00 0.00 98 1011.4
20260905065239 77 276 0.0 0.0 0.00 0.00 0.00 98 1011.6
20260905064734 77 275 0.0 0.0 0.00 0.00 0.00 98 1011.5
20260905064230 77 277 0.0 0.0 0.00 0.00 0.00 98 1011.7
20260905063728 77 279 0.0 0.0 0.00 0.00 0.00 99 1011.9
20260905063224 77 273 0.0 0.0 0.00 0.00 0.00 99 1011.7
20260905062720 77 272 0.0 0.0 0.00 0.00 0.00 99 1011.9
20260905062214 77 274 0.0 0.0 0.00 0.00 0.00 99 1012.2
20260905061714 77 274 0.0 0.0 0.00 0.00 0.00 99 1012.3
20260905061209 77 280 0.0 0.0 0.00 0.00 0.00 98 1012.1
20260905060704 77 279 0.0 0.0 0.00 0.00 0.00 98 1012.0
20260905060201 77 274 0.0 0.0 0.00 0.00 0.00 98 1012.2
20260905055659 77 274 0.0 0.0 0.00 0.00 0.00 98 1012.2
20260905055154 77 274 0.0 0.0 0.00 0.00 0.00 98 1012.4
20260905054649 77 274 0.0 0.0 0.00 0.00 0.00 98 1012.4
20260905054145 77 273 0.0 0.0 0.00 0.00 0.00 98 1012.4
20260905053645 77 278 0.0 0.0 0.00 0.00 0.00 98 1012.5
20260905053140 77 278 0.0 0.0 0.00 0.00 0.00 98 1012.5
20260905052639 78 277 0.0 0.0 0.00 0.00 0.00 98 1012.4
20260905052135 77 278 0.0 0.0 0.00 0.00 0.00 98 1012.4
20260905051629 78 278 0.0 0.0 0.00 0.00 0.00 98 1012.5
20260905051126 78 280 0.0 0.0 0.00 0.00 0.00 98 1012.5
20260905050621 78 273 0.0 0.0 0.00 0.00 0.00 98 1012.5
20260905050113 78 272 0.0 0.0 0.00 0.00 0.00 98 1012.4
20260905045613 78 278 0.0 0.0 0.00 0.00 0.00 97 1012.6
20260905045108 78 273 0.0 0.0 0.00 0.00 0.00 97 1012.4
20260905044608 78 278 0.0 0.0 0.00 0.00 0.00 97 1012.6
20260905044103 78 278 0.0 0.0 0.00 0.00 0.00 97 1012.3
20260905043601 78 279 0.0 0.0 0.00 0.00 0.00 97 1012.3
20260905043057 78 276 0.0 0.0 0.00 0.00 0.00 97 1012.6
20260905042555 78 275 0.0 0.0 0.00 0.00 0.00 97 1012.4
20260905042051 78 274 0.0 0.0 0.00 0.00 0.00 96 1012.6
20260905041546 78 275 0.0 0.0 0.00 0.00 0.00 96 1012.7
20260905041042 78 275 0.0 0.0 0.00 0.00 0.00 96 1012.7
20260905040541 78 275 0.0 0.0 0.00 0.00 0.00 96 1012.6
20260905040040 79 277 0.0 0.0 0.00 0.00 0.00 96 1012.9
20260905035535 79 279 0.0 0.0 0.00 0.00 0.00 96 1012.6
20260905035032 79 278 0.0 0.0 0.00 0.00 0.00 96 1012.6
20260905034527 79 277 0.0 0.0 0.00 0.00 0.00 96 1012.8
20260905034027 79 277 0.0 0.0 0.00 0.00 0.00 95 1013.0
20260905033521 79 277 0.0 0.0 0.00 0.00 0.00 95 1012.6
20260905033017 79 277 0.0 0.0 0.00 0.00 0.00 95 1012.8
20260905032512 79 277 0.0 0.0 0.00 0.00 0.00 95 1012.8
20260905032007 79 277 0.0 0.0 0.00 0.00 0.00 95 1012.6
20260905031503 79 277 0.0 0.0 0.00 0.00 0.00 94 1012.8
20260905030957 80 277 0.0 0.0 0.00 0.00 0.00 94 1012.6
20260905030453 80 277 0.0 0.0 0.00 0.00 0.00 94 1012.9
20260905025951 80 277 0.0 0.0 0.00 0.00 0.00 94 1012.6
20260905025448 80 277 0.0 0.0 0.00 0.00 0.00 93 1012.6
20260905024944 80 277 0.0 0.0 0.00 0.00 0.00 93 1012.9
20260905024444 80 278 0.0 0.0 0.00 0.00 0.00 93 1012.6
20260905023940 80 279 0.0 0.0 0.00 0.00 0.00 93 1012.6
20260905023434 80 279 0.0 0.0 0.00 0.00 0.00 93 1012.6
20260905022933 80 277 0.0 0.0 0.00 0.00 0.00 92 1012.6
20260905022428 80 277 0.0 0.0 0.00 0.00 0.00 91 1012.7
20260905021924 81 277 0.0 0.0 0.00 0.00 0.00 91 1012.7
20260905021424 81 277 0.0 0.0 0.00 0.00 0.00 91 1012.5
20260905020919 81 277 0.0 0.0 0.00 0.00 0.00 91 1012.5
20260905020418 81 276 0.0 0.0 0.00 0.00 0.00 91 1012.5
20260905015913 82 282 0.0 0.0 0.00 0.00 0.00 90 1012.4
20260905015411 82 282 0.0 0.0 0.00 0.00 0.00 90 1012.5
20260905014910 82 282 0.0 0.0 0.00 0.00 0.00 90 1012.4
20260905014406 82 277 0.0 0.0 0.00 0.00 0.00 89 1012.5
20260905013901 82 277 0.0 0.0 0.00 0.00 0.00 89 1012.5
20260905013357 82 277 0.0 0.0 0.00 0.00 0.00 89 1012.3
20260905012852 83 278 0.0 0.0 0.00 0.00 0.00 89 1012.3
20260905012347 83 276 0.0 0.0 0.00 0.00 0.00 88 1012.0
20260905011844 83 275 0.0 0.0 0.00 0.00 0.00 87 1012.4
20260905011339 83 277 0.0 0.0 0.00 0.00 0.00 85 1012.2
20260905010835 83 277 0.0 0.0 0.00 0.00 0.00 85 1012.1
20260905010330 84 277 0.0 0.0 0.00 0.00 0.00 84 1012.3
20260905005826 84 277 0.0 0.0 0.00 0.00 0.00 83 1012.1
20260905005322 84 277 0.0 0.0 0.00 0.00 0.00 83 1012.2
20260905004816 84 277 0.0 0.0 0.00 0.00 0.00 83 1012.3
20260905004311 85 277 0.0 0.0 0.00 0.00 0.00 83 1012.0
20260905003806 85 277 0.0 0.0 0.00 0.00 0.00 82 1012.3
20260905003303 85 277 0.0 0.0 0.00 0.00 0.00 81 1011.9
20260905002758 86 277 0.0 0.0 0.00 0.00 0.00 81 1012.1
20260905002257 86 277 0.0 0.0 0.00 0.00 0.00 80 1012.0
20260905001752 86 277 0.0 0.0 0.00 0.00 0.00 78 1012.3
20260905001252 87 277 0.0 0.0 0.00 0.00 0.00 79 1012.2
20260905000747 87 277 0.0 0.0 0.00 0.00 0.00 78 1012.0
20260905000243 88 277 0.0 0.0 0.00 0.00 0.00 77 1012.2
20260904235738 88 277 0.0 0.0 0.00 0.00 0.00 76 1012.1
20260904235232 88 277 0.0 0.0 0.00 0.00 0.00 75 1012.4
20260904234727 89 277 0.0 0.0 0.00 0.00 0.00 74 1012.4
20260904234222 89 277 0.0 0.0 0.00 0.00 0.00 73 1012.2
20260904233718 89 278 0.0 0.0 0.00 0.00 0.00 73 1012.3
20260904233214 90 278 0.0 0.0 0.00 0.00 0.00 72 1012.2
20260904232711 90 288 0.0 0.0 0.00 0.00 0.00 71 1012.0
20260904232207 91 279 0.0 0.0 0.00 0.00 0.00 71 1012.0
20260904231702 91 278 0.0 0.0 0.00 0.00 0.00 70 1012.1
20260904231157 91 284 0.0 0.0 0.00 0.00 0.00 68 1012.1
20260904230657 92 277 0.0 0.0 0.00 0.00 0.00 68 1012.1
20260904230152 93 292 0.9 0.9 0.00 0.00 0.00 66 1012.2
20260904225650 94 289 0.9 0.9 0.00 0.00 0.00 64 1011.9
20260904225145 95 276 0.9 0.9 0.00 0.00 0.00 62 1011.9
20260904224639 95 282 0.9 0.9 0.00 0.00 0.00 60 1011.9
20260904224139 95 286 0.9 0.9 0.00 0.00 0.00 62 1011.9
20260904223633 96 285 0.9 0.9 0.00 0.00 0.00 60 1012.1
20260904223129 96 292 1.7 1.7 0.00 0.00 0.00 60 1011.9
20260904222625 97 275 0.9 0.9 0.00 0.00 0.00 59 1011.7
20260904222120 96 266 0.9 1.7 0.00 0.00 0.00 61 1012.0
20260904221620 96 270 0.0 0.9 0.00 0.00 0.00 59 1011.8
20260904221119 96 292 2.6 4.3 0.00 0.00 0.00 58 1011.9
20260904220615 97 275 0.9 0.9 0.00 0.00 0.00 60 1011.8
20260904220109 96 268 0.9 0.9 0.00 0.00 0.00 60 1011.8
20260904215604 96 281 0.9 1.7 0.00 0.00 0.00 61 1011.9
20260904215100 96 349 0.0 0.9 0.00 0.00 0.00 60 1011.9
20260904214555 97 324 1.7 1.7 0.00 0.00 0.00 60 1011.8
20260904214050 97 270 0.9 1.7 0.00 0.00 0.00 60 1011.7
20260904213548 97 283 1.7 1.7 0.00 0.00 0.00 58 1012.0
20260904213045 96 279 0.9 0.9 0.00 0.00 0.00 59 1011.7
20260904212545 98 283 1.7 2.6 0.00 0.00 0.00 57 1011.6
20260904212040 96 273 0.0 0.0 0.00 0.00 0.00 59 1012.0
20260904211540 96 290 0.9 0.9 0.00 0.00 0.00 61 1012.0
20260904211035 97 284 1.7 2.6 0.00 0.00 0.00 59 1012.1
20260904210534 96 283 1.7 1.7 0.00 0.00 0.00 59 1012.1
20260904210030 97 263 4.3 6.1 0.00 0.00 0.00 57 1012.1
20260904205525 96 280 0.9 1.7 0.00 0.00 0.00 57 1012.0
20260904205022 96 292 0.9 1.7 0.00 0.00 0.00 60 1012.2
20260904204518 97 276 1.7 1.7 0.00 0.00 0.00 59 1012.2
20260904204014 96 263 1.7 1.7 0.00 0.00 0.00 57 1012.4
20260904203509 96 294 0.9 0.9 0.00 0.00 0.00 57 1012.6
20260904203006 97 271 0.9 0.9 0.00 0.00 0.00 57 1012.8
20260904202501 96 243 1.7 1.7 0.00 0.00 0.00 59 1012.6
20260904201957 98 271 1.7 2.6 0.00 0.00 0.00 56 1012.4
20260904201452 97 274 0.9 1.7 0.00 0.00 0.00 57 1012.8
20260904200948 98 304 2.6 2.6 0.00 0.00 0.00 57 1012.8
20260904200446 98 272 3.5 4.3 0.00 0.00 0.00 57 1012.8
20260904195941 98 276 0.0 0.9 0.00 0.00 0.00 58 1012.7
20260904195439 98 304 2.6 4.3 0.00 0.00 0.00 58 1012.8
20260904194939 97 276 0.9 0.9 0.00 0.00 0.00 58 1013.0
20260904194433 98 289 0.9 0.9 0.00 0.00 0.00 57 1012.9
20260904193929 97 286 0.9 1.7 0.00 0.00 0.00 58 1013.2
20260904193424 97 263 0.9 1.7 0.00 0.00 0.00 57 1013.1
20260904192920 98 240 0.9 1.7 0.00 0.00 0.00 57 1013.2
20260904192414 98 291 2.6 2.6 0.00 0.00 0.00 56 1013.5
20260904191911 98 271 0.9 0.9 0.00 0.00 0.00 58 1013.6
20260904191407 97 281 0.9 0.9 0.00 0.00 0.00 57 1013.4